(°C)
10°
11°
11°
11°
10°
10°
(°C)
V
V
V
V
V
VNV
VNV
(km/h)
19-33
23-38
25-41
25-41
25-41
24-40
22-39
(mm)
0
0
0
0
0
0
0
(%)
0
0
0
0
0
0
0

Elevația soarelui

/ 32.3°
sun-icon
UV 2
06:54
19:20
Primul pătrar (172°)
19:33
05:36

METAR pentru 51.02°N 71.47°E (UACC)

Ora Condiții Temperatură/
Punctul de rouă
Vânt Vizibilitate Vremea Nori Presiune Schimbă Brut
VFR 8°C / -3°C 260º 16kt >10km - Scattered Clouds 3000ft 1018 No Significant change. Runway 22: Clear and dry, , friction coefficient 0.70. UACC 200430Z 26008MPS 9999 SCT030 08/M03 Q1018 R22/0///70 NOSIG RMK QFE732/0977
VFR 7°C / -2°C 260º 12kt >10km - Clouds and Visibility OK 1018 No Significant change. Runway 22: Clear and dry, , friction coefficient 0.70. UACC 200400Z 26006MPS CAVOK 07/M02 Q1018 R22/0///70 NOSIG RMK QFE732/0977
VFR 6°C / -2°C 250º 14kt >10km - Clouds and Visibility OK 1018 No Significant change. Runway 22: Clear and dry, , friction coefficient 0.70. UACC 200330Z 25007MPS CAVOK 06/M02 Q1018 R22/0///70 NOSIG RMK QFE732/0977
VFR 5°C / -2°C 250º 12kt >10km - Broken Clouds 4600ft 1018 No Significant change. Runway 22: Clear and dry, , friction coefficient 0.70. UACC 200300Z 25006MPS 9999 BKN046 05/M02 Q1018 R22/0///70 NOSIG RMK QFE732/0977
VFR 4°C / -1°C 250º 10kt 9000m - Broken Clouds 4600ft 1018 No Significant change. Runway 22: Clear and dry, , friction coefficient 0.70. UACC 200230Z 25005MPS 9000 BKN046 04/M01 Q1018 R22/0///70 NOSIG RMK QFE732/0977
VFR 4°C / -2°C 240º 12kt >10km - Broken Clouds 4600ft 1018 No Significant change. Runway 22: Clear and dry, , friction coefficient 0.70. UACC 200200Z 24006MPS 9999 BKN046 04/M02 Q1018 R22/0///70 NOSIG RMK QFE732/0976
VFR 3°C / -2°C 250º 10kt 9000m - Broken Clouds 4600ft 1018 No Significant change. Runway 22: Clear and dry, , friction coefficient 0.70. UACC 200130Z 25005MPS 9000 BKN046 03/M02 Q1018 R22/0///70 NOSIG RMK QFE732/0976
VFR 3°C / -2°C 250º 10kt 9000m - Scattered Clouds 4600ft 1018 No Significant change. Runway 22: Clear and dry, , friction coefficient 0.70. UACC 200100Z 25005MPS 9000 SCT046 03/M02 Q1018 R22/0///70 NOSIG RMK QFE732/0976
VFR 3°C / -2°C 240º 10kt 9000m - Broken Clouds 4600ft 1017 No Significant change. Runway 22: Clear and dry, , friction coefficient 0.70. UACC 200030Z 24005MPS 9000 BKN046 03/M02 Q1017 R22/0///70 NOSIG RMK QFE732/0976
VFR 4°C / -2°C 250º 10kt 9000m - Clear 1017 No Significant change. Runway 22: Clear and dry, , friction coefficient 0.70. UACC 200000Z 25005MPS 9000 NSC 04/M02 Q1017 R22/0///70 NOSIG RMK QFE732/0976
VFR 4°C / -2°C 250º 10kt 9000m - Broken Clouds 4300ft 1017 No Significant change. Runway 22: Clear and dry, , friction coefficient 0.70. UACC 192330Z 25005MPS 9000 BKN043 04/M02 Q1017 R22/0///70 NOSIG RMK QFE732/0976
VFR 4°C / -2°C 250º 10kt 9000m - Broken Clouds 4300ft 1017 No Significant change. Runway 22: Clear and dry, , friction coefficient 0.70. UACC 192300Z 25005MPS 9000 BKN043 04/M02 Q1017 R22/0///70 NOSIG RMK QFE731/0975
VFR 4°C / -2°C 250º 12kt 9000m - Broken Clouds 4600ft 1017 No Significant change. Runway 22: Clear and dry, , friction coefficient 0.70. UACC 192230Z 25006MPS 9000 BKN046 04/M02 Q1017 R22/0///70 NOSIG RMK QFE731/0975
VFR 4°C / -2°C 250º 10kt >10km - Broken Clouds 4600ft 1017 No Significant change. Runway 22: Clear and dry, , friction coefficient 0.70. UACC 192200Z 25005MPS 9999 BKN046 04/M02 Q1017 R22/0///70 NOSIG RMK QFE731/0975
VFR 3°C / -2°C 250º 10kt >10km - Broken Clouds 4600ft 1017 No Significant change. Runway 22: Clear and dry, , friction coefficient 0.70. UACC 192130Z 25005MPS 9999 BKN046 03/M02 Q1017 R22/0///70 NOSIG RMK QFE731/0975
VFR 3°C / -2°C 250º 12kt >10km - Scattered Clouds 4600ft 1016 No Significant change. Runway 22: Clear and dry, , friction coefficient 0.70. UACC 192100Z 25006MPS 9999 SCT046 03/M02 Q1016 R22/0///70 NOSIG RMK QFE731/0975
VFR 2°C / -2°C 250º 12kt >10km - Scattered Clouds 4600ft 1016 No Significant change. Runway 22: Clear and dry, , friction coefficient 0.70. UACC 192030Z 25006MPS 9999 SCT046 02/M02 Q1016 R22/0///70 NOSIG RMK QFE731/0975
VFR 2°C / -2°C 250º 10kt >10km - Clouds and Visibility OK 1016 No Significant change. Runway 22: Clear and dry, , friction coefficient 0.70. UACC 192000Z 25005MPS CAVOK 02/M02 Q1016 R22/0///70 NOSIG RMK QFE731/0975
VFR 3°C / -2°C 250º 12kt >10km - Clouds and Visibility OK 1016 No Significant change. Runway 22: Clear and dry, , friction coefficient 0.70. UACC 191930Z 25006MPS CAVOK 03/M02 Q1016 R22/0///70 NOSIG RMK QFE731/0974
VFR 3°C / -2°C 250º variable 210º to 330º 10kt >10km - Clouds and Visibility OK 1016 No Significant change. Runway 22: Clear and dry, , friction coefficient 0.70. UACC 191900Z 25005MPS 210V330 CAVOK 03/M02 Q1016 R22/0///70 NOSIG RMK QFE731/0974
VFR 4°C / -2°C 250º 10kt >10km - Clouds and Visibility OK 1016 No Significant change. Runway 22: Clear and dry, , friction coefficient 0.70. UACC 191830Z 25005MPS CAVOK 04/M02 Q1016 R22/0///70 NOSIG RMK QFE730/0974
VFR 4°C / -2°C 240º 10kt >10km - Clouds and Visibility OK 1016 No Significant change. Runway 22: Clear and dry, , friction coefficient 0.70. UACC 191800Z 24005MPS CAVOK 04/M02 Q1016 R22/0///70 NOSIG RMK QFE730/0974
VFR 4°C / -2°C 240º 10kt >10km - Clouds and Visibility OK 1016 No Significant change. Runway 22: Clear and dry, , friction coefficient 0.70. UACC 191730Z 24005MPS CAVOK 04/M02 Q1016 R22/0///70 NOSIG RMK QFE730/0974
VFR 4°C / -2°C 250º 10kt >10km - Clouds and Visibility OK 1015 No Significant change. Runway 22: Clear and dry, , friction coefficient 0.70. UACC 191700Z 25005MPS CAVOK 04/M02 Q1015 R22/0///70 NOSIG RMK QFE730/0974

VFR

8°C / -3°C

[Mai mult]
Vânt 260º 16kt
Vizibilitate >10km
Vremea -
Nori Scattered Clouds 3000ft
Presiune 1018
Schimbă No Significant change. Runway 22: Clear and dry, , friction coefficient 0.70.
Brut UACC 200430Z 26008MPS 9999 SCT030 08/M03 Q1018 R22/0///70 NOSIG RMK QFE732/0977

VFR

7°C / -2°C

[Mai mult]
Vânt 260º 12kt
Vizibilitate >10km
Vremea -
Nori Clouds and Visibility OK
Presiune 1018
Schimbă No Significant change. Runway 22: Clear and dry, , friction coefficient 0.70.
Brut UACC 200400Z 26006MPS CAVOK 07/M02 Q1018 R22/0///70 NOSIG RMK QFE732/0977

VFR

6°C / -2°C

[Mai mult]
Vânt 250º 14kt
Vizibilitate >10km
Vremea -
Nori Clouds and Visibility OK
Presiune 1018
Schimbă No Significant change. Runway 22: Clear and dry, , friction coefficient 0.70.
Brut UACC 200330Z 25007MPS CAVOK 06/M02 Q1018 R22/0///70 NOSIG RMK QFE732/0977

VFR

5°C / -2°C

[Mai mult]
Vânt 250º 12kt
Vizibilitate >10km
Vremea -
Nori Broken Clouds 4600ft
Presiune 1018
Schimbă No Significant change. Runway 22: Clear and dry, , friction coefficient 0.70.
Brut UACC 200300Z 25006MPS 9999 BKN046 05/M02 Q1018 R22/0///70 NOSIG RMK QFE732/0977

VFR

4°C / -1°C

[Mai mult]
Vânt 250º 10kt
Vizibilitate 9000m
Vremea -
Nori Broken Clouds 4600ft
Presiune 1018
Schimbă No Significant change. Runway 22: Clear and dry, , friction coefficient 0.70.
Brut UACC 200230Z 25005MPS 9000 BKN046 04/M01 Q1018 R22/0///70 NOSIG RMK QFE732/0977

VFR

4°C / -2°C

[Mai mult]
Vânt 240º 12kt
Vizibilitate >10km
Vremea -
Nori Broken Clouds 4600ft
Presiune 1018
Schimbă No Significant change. Runway 22: Clear and dry, , friction coefficient 0.70.
Brut UACC 200200Z 24006MPS 9999 BKN046 04/M02 Q1018 R22/0///70 NOSIG RMK QFE732/0976

VFR

3°C / -2°C

[Mai mult]
Vânt 250º 10kt
Vizibilitate 9000m
Vremea -
Nori Broken Clouds 4600ft
Presiune 1018
Schimbă No Significant change. Runway 22: Clear and dry, , friction coefficient 0.70.
Brut UACC 200130Z 25005MPS 9000 BKN046 03/M02 Q1018 R22/0///70 NOSIG RMK QFE732/0976

VFR

3°C / -2°C

[Mai mult]
Vânt 250º 10kt
Vizibilitate 9000m
Vremea -
Nori Scattered Clouds 4600ft
Presiune 1018
Schimbă No Significant change. Runway 22: Clear and dry, , friction coefficient 0.70.
Brut UACC 200100Z 25005MPS 9000 SCT046 03/M02 Q1018 R22/0///70 NOSIG RMK QFE732/0976

VFR

3°C / -2°C

[Mai mult]
Vânt 240º 10kt
Vizibilitate 9000m
Vremea -
Nori Broken Clouds 4600ft
Presiune 1017
Schimbă No Significant change. Runway 22: Clear and dry, , friction coefficient 0.70.
Brut UACC 200030Z 24005MPS 9000 BKN046 03/M02 Q1017 R22/0///70 NOSIG RMK QFE732/0976

VFR

4°C / -2°C

[Mai mult]
Vânt 250º 10kt
Vizibilitate 9000m
Vremea -
Nori Clear
Presiune 1017
Schimbă No Significant change. Runway 22: Clear and dry, , friction coefficient 0.70.
Brut UACC 200000Z 25005MPS 9000 NSC 04/M02 Q1017 R22/0///70 NOSIG RMK QFE732/0976

VFR

4°C / -2°C

[Mai mult]
Vânt 250º 10kt
Vizibilitate 9000m
Vremea -
Nori Broken Clouds 4300ft
Presiune 1017
Schimbă No Significant change. Runway 22: Clear and dry, , friction coefficient 0.70.
Brut UACC 192330Z 25005MPS 9000 BKN043 04/M02 Q1017 R22/0///70 NOSIG RMK QFE732/0976

VFR

4°C / -2°C

[Mai mult]
Vânt 250º 10kt
Vizibilitate 9000m
Vremea -
Nori Broken Clouds 4300ft
Presiune 1017
Schimbă No Significant change. Runway 22: Clear and dry, , friction coefficient 0.70.
Brut UACC 192300Z 25005MPS 9000 BKN043 04/M02 Q1017 R22/0///70 NOSIG RMK QFE731/0975

VFR

4°C / -2°C

[Mai mult]
Vânt 250º 12kt
Vizibilitate 9000m
Vremea -
Nori Broken Clouds 4600ft
Presiune 1017
Schimbă No Significant change. Runway 22: Clear and dry, , friction coefficient 0.70.
Brut UACC 192230Z 25006MPS 9000 BKN046 04/M02 Q1017 R22/0///70 NOSIG RMK QFE731/0975

VFR

4°C / -2°C

[Mai mult]
Vânt 250º 10kt
Vizibilitate >10km
Vremea -
Nori Broken Clouds 4600ft
Presiune 1017
Schimbă No Significant change. Runway 22: Clear and dry, , friction coefficient 0.70.
Brut UACC 192200Z 25005MPS 9999 BKN046 04/M02 Q1017 R22/0///70 NOSIG RMK QFE731/0975

VFR

3°C / -2°C

[Mai mult]
Vânt 250º 10kt
Vizibilitate >10km
Vremea -
Nori Broken Clouds 4600ft
Presiune 1017
Schimbă No Significant change. Runway 22: Clear and dry, , friction coefficient 0.70.
Brut UACC 192130Z 25005MPS 9999 BKN046 03/M02 Q1017 R22/0///70 NOSIG RMK QFE731/0975

VFR

3°C / -2°C

[Mai mult]
Vânt 250º 12kt
Vizibilitate >10km
Vremea -
Nori Scattered Clouds 4600ft
Presiune 1016
Schimbă No Significant change. Runway 22: Clear and dry, , friction coefficient 0.70.
Brut UACC 192100Z 25006MPS 9999 SCT046 03/M02 Q1016 R22/0///70 NOSIG RMK QFE731/0975

VFR

2°C / -2°C

[Mai mult]
Vânt 250º 12kt
Vizibilitate >10km
Vremea -
Nori Scattered Clouds 4600ft
Presiune 1016
Schimbă No Significant change. Runway 22: Clear and dry, , friction coefficient 0.70.
Brut UACC 192030Z 25006MPS 9999 SCT046 02/M02 Q1016 R22/0///70 NOSIG RMK QFE731/0975

VFR

2°C / -2°C

[Mai mult]
Vânt 250º 10kt
Vizibilitate >10km
Vremea -
Nori Clouds and Visibility OK
Presiune 1016
Schimbă No Significant change. Runway 22: Clear and dry, , friction coefficient 0.70.
Brut UACC 192000Z 25005MPS CAVOK 02/M02 Q1016 R22/0///70 NOSIG RMK QFE731/0975

VFR

3°C / -2°C

[Mai mult]
Vânt 250º 12kt
Vizibilitate >10km
Vremea -
Nori Clouds and Visibility OK
Presiune 1016
Schimbă No Significant change. Runway 22: Clear and dry, , friction coefficient 0.70.
Brut UACC 191930Z 25006MPS CAVOK 03/M02 Q1016 R22/0///70 NOSIG RMK QFE731/0974

VFR

3°C / -2°C

[Mai mult]
Vânt 250º variable 210º to 330º 10kt
Vizibilitate >10km
Vremea -
Nori Clouds and Visibility OK
Presiune 1016
Schimbă No Significant change. Runway 22: Clear and dry, , friction coefficient 0.70.
Brut UACC 191900Z 25005MPS 210V330 CAVOK 03/M02 Q1016 R22/0///70 NOSIG RMK QFE731/0974

VFR

4°C / -2°C

[Mai mult]
Vânt 250º 10kt
Vizibilitate >10km
Vremea -
Nori Clouds and Visibility OK
Presiune 1016
Schimbă No Significant change. Runway 22: Clear and dry, , friction coefficient 0.70.
Brut UACC 191830Z 25005MPS CAVOK 04/M02 Q1016 R22/0///70 NOSIG RMK QFE730/0974

VFR

4°C / -2°C

[Mai mult]
Vânt 240º 10kt
Vizibilitate >10km
Vremea -
Nori Clouds and Visibility OK
Presiune 1016
Schimbă No Significant change. Runway 22: Clear and dry, , friction coefficient 0.70.
Brut UACC 191800Z 24005MPS CAVOK 04/M02 Q1016 R22/0///70 NOSIG RMK QFE730/0974

VFR

4°C / -2°C

[Mai mult]
Vânt 240º 10kt
Vizibilitate >10km
Vremea -
Nori Clouds and Visibility OK
Presiune 1016
Schimbă No Significant change. Runway 22: Clear and dry, , friction coefficient 0.70.
Brut UACC 191730Z 24005MPS CAVOK 04/M02 Q1016 R22/0///70 NOSIG RMK QFE730/0974

VFR

4°C / -2°C

[Mai mult]
Vânt 250º 10kt
Vizibilitate >10km
Vremea -
Nori Clouds and Visibility OK
Presiune 1015
Schimbă No Significant change. Runway 22: Clear and dry, , friction coefficient 0.70.
Brut UACC 191700Z 25005MPS CAVOK 04/M02 Q1015 R22/0///70 NOSIG RMK QFE730/0974

TAF pentru 51.02°N 71.47°E (UACC)

From till


Maximum Temperature 10ºC on . Minimum Temperature 0ºC on .
From till Wind 250º 12kt. Visibility 10km or more. Scattered Clouds 1500ft. Broken Clouds 3000ft.
Temporarly from till Visibility 3100m. Mist . Few Clouds 400ft.
Becoming from till Wind 280º 16kt. Visibility 10km or more. Scattered Clouds 1500ft. Broken Clouds 3000ft.
Temporarly from till Wind 280º 17kt. Gust 27kt.
Becoming from till Wind 330º 10kt. Visibility 10km or more. Scattered Clouds 1500ft. Broken Clouds 3000ft.

Brut: TAF UACC 192300Z 2000/2024 25006MPS 9999 SCT015 BKN030 TX10/2009Z TN00/2023Z TEMPO 2000/2003 3100 BR FEW004 BECMG 2003/2005 28008MPS TEMPO 2005/2012 28009G14MPS BECMG 2012/2014 33005MPS

Imagini satelitare și ploaie pentru 51.02°N 71.47°E

Markerul cu locaţia este poziţionat pe 51.02°N 71.47°E. [Mai mult]

Imaginea satelitară în timp real combină lumina vizibilă din timpul zilei cu radiația cu infraroșu din timpul nopții. Pe timp de noapte, imaginea nu este întunecată, deoarece radiația cu infraroșu poate detecta diferențele de temperatură. Din păcate, norii joși și ceața sunt greu de recunoscut față de temperatura de la sol, din această cauză putând fi invizibili pe timp de noapte. Imaginile satelitare Meteosat pentru Europa sunt actualizate în timp real din 5 în 5 minute. Imaginile GOES-16/GOES-17 (America de Nord și de Sud) și Himawari (Asia) sunt actualizate din 10 în 10 minute.

Toate drepturile rezervate 2021 EUMETSAT / meteoblue. / Toate drepturile rezervate 2021 meteoblue

Radar și nowcast de precipitații pentru 51.02°N 71.47°E

Burniță
Ușoară
Moderat
Greu
Foarte greu
Grindină

Markerul de locație este plasat în 51.02°N 71.47°E. Această animație arată radarul de precipitații pentru ultima oră, precum și o 1h prognoză. Ploaia sau ninsoarea slabă ar putea fi invizibilă pentru radar. Intensitatea precipitațiilor este codificată prin culori, de la albastru deschis la portocaliu.